• Em Portugal
  • Lista de países
  • Para 7 dias
  • Temperatura da água
  • Mapas de satélite
  • Mapa do tempo
  • Widgets de tempo
  • user-avatar
    Iniciar Sessão

    Previsão horária em Pobondzie

    Hoje, 20 Agosto, Segunda-feira

    Tempo Temperatura Precipitação Vento Pressão Humidade
    00:00 +18°C° 0 mm 1 m/s 750 mmHg 83%
    01:00 +18°C° 0 mm 1 m/s 750 mmHg 84%
    02:00 +18°C° 0 mm 1 m/s 750 mmHg 85%
    03:00 +18°C° 0 mm 1 m/s 749 mmHg 85%
    04:00 +17°C° 0 mm 2 m/s 749 mmHg 86%
    05:00 +17°C° 0 mm 2 m/s 748 mmHg 87%
    06:00 +18°C° 0 mm 2 m/s 748 mmHg 83%
    07:00 +20°C° 0 mm 3 m/s 748 mmHg 79%
    08:00 +21°C° 0 mm 3 m/s 748 mmHg 75%
    09:00 +24°C° 0 mm 3 m/s 748 mmHg 69%
    10:00 +25°C° 0 mm 3 m/s 747 mmHg 62%
    11:00 +27°C° 0 mm 4 m/s 747 mmHg 56%
    12:00 +28°C° 0 mm 4 m/s 747 mmHg 53%
    13:00 +29°C° 0 mm 4 m/s 746 mmHg 51%
    14:00 +29°C° 0 mm 5 m/s 746 mmHg 48%
    15:00 +28°C° 0,2 mm 4 m/s 746 mmHg 54%
    16:00 +27°C° 0,2 mm 4 m/s 745 mmHg 60%
    17:00 +27°C° 0,2 mm 4 m/s 745 mmHg 66%
    18:00 +25°C° 0,1 mm 4 m/s 745 mmHg 73%
    19:00 +22°C° 0,1 mm 4 m/s 745 mmHg 80%
    20:00 +20°C° 0,1 mm 3 m/s 745 mmHg 87%
    21:00 +19°C° 0 mm 3 m/s 745 mmHg 88%
    22:00 +19°C° 0 mm 3 m/s 745 mmHg 90%
    23:00 +18°C° 0 mm 4 m/s 745 mmHg 92%

    Amanhã, 21 Agosto, Terça-feira

    Tempo Temperatura Precipitação Vento Pressão Humidade
    00:00 +18°C° 0 mm 4 m/s 745 mmHg 91%
    01:00 +17°C° 0 mm 4 m/s 745 mmHg 90%
    02:00 +15°C° 0 mm 4 m/s 745 mmHg 89%
    03:00 +15°C° 0 mm 4 m/s 746 mmHg 88%
    04:00 +14°C° 0 mm 4 m/s 746 mmHg 88%
    05:00 +14°C° 0 mm 4 m/s 746 mmHg 87%
    06:00 +15°C° 0 mm 4 m/s 747 mmHg 85%
    07:00 +15°C° 0 mm 4 m/s 747 mmHg 83%
    08:00 +17°C° 0 mm 4 m/s 748 mmHg 81%
    09:00 +18°C° 0,1 mm 4 m/s 748 mmHg 76%
    10:00 +19°C° 0,1 mm 4 m/s 749 mmHg 70%
    11:00 +20°C° 0,1 mm 4 m/s 749 mmHg 65%
    12:00 +21°C° 0,1 mm 4 m/s 749 mmHg 63%
    13:00 +21°C° 0,1 mm 4 m/s 749 mmHg 60%
    14:00 +22°C° 0,1 mm 4 m/s 750 mmHg 57%
    15:00 +21°C° 0 mm 4 m/s 750 mmHg 58%
    16:00 +21°C° 0 mm 4 m/s 750 mmHg 59%
    17:00 +21°C° 0 mm 4 m/s 750 mmHg 60%
    18:00 +19°C° 0 mm 4 m/s 751 mmHg 66%
    19:00 +17°C° 0 mm 3 m/s 751 mmHg 72%
    20:00 +14°C° 0 mm 3 m/s 751 mmHg 77%
    21:00 +13°C° 0 mm 3 m/s 752 mmHg 80%
    22:00 +14°C° 0 mm 2 m/s 752 mmHg 83%
    23:00 +13°C° 0 mm 2 m/s 752 mmHg 86%

    Depois de amanhã, 22 Agosto, Quarta-feira

    Tempo Temperatura Precipitação Vento Pressão Humidade
    00:00 +12°C° 0 mm 2 m/s 753 mmHg 88%
    01:00 +10°C° 0 mm 2 m/s 753 mmHg 89%
    02:00 +11°C° 0 mm 1 m/s 753 mmHg 90%
    03:00 +11°C° 0 mm 1 m/s 753 mmHg 91%
    04:00 +10°C° 0 mm 1 m/s 754 mmHg 91%
    05:00 +10°C° 0 mm 1 m/s 754 mmHg 92%
    06:00 +11°C° 0 mm 1 m/s 754 mmHg 86%
    07:00 +13°C° 0 mm 1 m/s 754 mmHg 81%
    08:00 +15°C° 0 mm 1 m/s 754 mmHg 75%
    09:00 +16°C° 0 mm 1 m/s 754 mmHg 68%
    10:00 +19°C° 0 mm 1 m/s 754 mmHg 61%
    11:00 +20°C° 0 mm 1 m/s 754 mmHg 54%
    12:00 +21°C° 0 mm 1 m/s 754 mmHg 51%
    13:00 +22°C° 0 mm 1 m/s 754 mmHg 47%
    14:00 +23°C° 0 mm 1 m/s 754 mmHg 44%
    15:00 +23°C° 0 mm 1 m/s 753 mmHg 44%
    16:00 +23°C° 0 mm 1 m/s 753 mmHg 45%
    17:00 +23°C° 0 mm 1 m/s 753 mmHg 45%
    18:00 +21°C° 0 mm 1 m/s 753 mmHg 51%
    19:00 +19°C° 0 mm 1 m/s 752 mmHg 57%
    20:00 +16°C° 0 mm 1 m/s 752 mmHg 62%
    21:00 +16°C° 0 mm 2 m/s 752 mmHg 66%
    22:00 +15°C° 0 mm 2 m/s 752 mmHg 69%
    23:00 +13°C° 0 mm 3 m/s 752 mmHg 72%

    23 Agosto, Quinta-feira

    Tempo Temperatura Precipitação Vento Pressão Humidade
    00:00 +13°C° 0 mm 3 m/s 752 mmHg 74%
    01:00 +13°C° 0 mm 3 m/s 752 mmHg 77%
    02:00 +13°C° 0 mm 3 m/s 752 mmHg 79%
    03:00 +13°C° 0 mm 3 m/s 752 mmHg 81%
    04:00 +12°C° 0 mm 3 m/s 751 mmHg 82%
    05:00 +12°C° 0 mm 3 m/s 751 mmHg 84%
    06:00 +14°C° 0 mm 3 m/s 751 mmHg 80%
    07:00 +15°C° 0 mm 4 m/s 751 mmHg 76%
    08:00 +17°C° 0 mm 4 m/s 751 mmHg 72%
    09:00 +19°C° 0 mm 4 m/s 751 mmHg 68%
    10:00 +21°C° 0 mm 4 m/s 751 mmHg 64%
    11:00 +23°C° 0 mm 4 m/s 750 mmHg 60%
    12:00 +25°C° 0 mm 4 m/s 750 mmHg 57%
    13:00 +25°C° 0 mm 4 m/s 750 mmHg 55%
    14:00 +26°C° 0 mm 4 m/s 749 mmHg 53%
    15:00 +26°C° 0 mm 4 m/s 749 mmHg 56%
    16:00 +26°C° 0 mm 3 m/s 749 mmHg 59%
    17:00 +25°C° 0 mm 3 m/s 748 mmHg 62%
    18:00 +24°C° 0 mm 3 m/s 748 mmHg 66%
    19:00 +21°C° 0 mm 3 m/s 748 mmHg 71%
    20:00 +20°C° 0 mm 3 m/s 748 mmHg 75%
    21:00 +19°C° 0 mm 3 m/s 748 mmHg 76%
    22:00 +19°C° 0 mm 3 m/s 747 mmHg 76%
    23:00 +19°C° 0 mm 4 m/s 747 mmHg 77%

    24 Agosto, Sexta-feira

    Tempo Temperatura Precipitação Vento Pressão Humidade
    00:00 +18°C° 0 mm 4 m/s 747 mmHg 80%
    01:00 +18°C° 0 mm 4 m/s 747 mmHg 82%
    02:00 +18°C° 0 mm 4 m/s 746 mmHg 85%
    03:00 +17°C° 0 mm 4 m/s 746 mmHg 86%
    04:00 +17°C° 0 mm 4 m/s 746 mmHg 88%
    05:00 +17°C° 0 mm 4 m/s 745 mmHg 89%
    06:00 +18°C° 0 mm 4 m/s 745 mmHg 87%
    07:00 +19°C° 0 mm 4 m/s 745 mmHg 84%
    08:00 +19°C° 0 mm 5 m/s 745 mmHg 81%
    09:00 +21°C° 0 mm 5 m/s 745 mmHg 77%
    10:00 +23°C° 0 mm 6 m/s 744 mmHg 72%
    11:00 +26°C° 0 mm 6 m/s 744 mmHg 67%
    12:00 +27°C° 0,3 mm 6 m/s 744 mmHg 63%
    13:00 +28°C° 0,3 mm 6 m/s 744 mmHg 60%
    14:00 +30°C° 0,3 mm 6 m/s 743 mmHg 57%
    15:00 +29°C° 0,7 mm 5 m/s 743 mmHg 59%
    16:00 +29°C° 0,7 mm 4 m/s 743 mmHg 61%
    17:00 +28°C° 0,7 mm 4 m/s 743 mmHg 64%
    18:00 +27°C° 0,4 mm 4 m/s 743 mmHg 66%
    19:00 +26°C° 0,4 mm 4 m/s 743 mmHg 69%
    20:00 +23°C° 0,4 mm 4 m/s 742 mmHg 71%
    21:00 +22°C° 1,3 mm 4 m/s 743 mmHg 76%
    22:00 +22°C° 1,3 mm 4 m/s 743 mmHg 81%
    23:00 +21°C° 1,3 mm 4 m/s 743 mmHg 85%

    25 Agosto, Sábado

    Tempo Temperatura Precipitação Vento Pressão Humidade
    00:00 +20°C° 1,3 mm 4 m/s 743 mmHg 89%
    01:00 +19°C° 1,3 mm 4 m/s 743 mmHg 92%
    02:00 +19°C° 1,3 mm 3 m/s 743 mmHg 95%
    03:00 +18°C° 0,1 mm 3 m/s 743 mmHg 95%
    04:00 +17°C° 0,1 mm 3 m/s 743 mmHg 95%
    05:00 +17°C° 0,1 mm 3 m/s 743 mmHg 95%
    06:00 +17°C° 0,1 mm 3 m/s 744 mmHg 93%
    07:00 +17°C° 0,1 mm 3 m/s 744 mmHg 90%
    08:00 +18°C° 0,1 mm 3 m/s 744 mmHg 87%
    09:00 +19°C° 0,1 mm 3 m/s 745 mmHg 83%
    10:00 +20°C° 0,1 mm 3 m/s 745 mmHg 78%
    11:00 +21°C° 0,1 mm 3 m/s 745 mmHg 74%
    12:00 +21°C° 0,1 mm 3 m/s 745 mmHg 74%
    13:00 +21°C° 0,1 mm 3 m/s 745 mmHg 75%
    14:00 +21°C° 0,1 mm 3 m/s 745 mmHg 75%
    15:00 +20°C° 0,1 mm 3 m/s 744 mmHg 78%
    16:00 +20°C° 0,1 mm 3 m/s 744 mmHg 80%
    17:00 +19°C° 0,1 mm 3 m/s 744 mmHg 83%
    18:00 +19°C° 0,5 mm 3 m/s 744 mmHg 85%
    19:00 +18°C° 0,5 mm 4 m/s 744 mmHg 88%
    20:00 +17°C° 0,5 mm 4 m/s 743 mmHg 91%
    21:00 +17°C° 0,5 mm 4 m/s 743 mmHg 92%
    22:00 +16°C° 0,5 mm 3 m/s 743 mmHg 93%
    23:00 +16°C° 0,5 mm 3 m/s 743 mmHg 94%
    Mostrar mais